GW6852 Weather Reports


time (UTC)temp
C
wind
direction
speed
KPH
gust
KPH
rain 1hr
cm
rain 24hr
cm
rain mn
cm
humidity
%
barometer
mb
20260503194905 21 71 3.2 6.4 0.00 0.00 0.00 55 1014.9
20260503194401 21 60 6.4 8.0 0.00 0.00 0.00 54 1014.8
20260503193857 20 95 4.8 6.4 0.00 0.00 0.00 56 1015.0
20260503193353 20 109 3.2 6.4 0.00 0.00 0.00 55 1015.0
20260503192849 20 95 1.6 8.0 0.00 0.00 0.00 58 1014.8
20260503192345 20 104 6.4 8.0 0.00 0.00 0.00 58 1014.8
20260503191841 20 94 3.2 9.7 0.00 0.00 0.00 58 1014.9
20260503191338 20 83 4.8 6.4 0.00 0.00 0.00 58 1014.8
20260503190835 20 115 3.2 6.4 0.00 0.00 0.00 61 1015.0
20260503190332 20 77 4.8 8.0 0.00 0.00 0.00 60 1014.8
20260503185829 20 78 3.2 6.4 0.00 0.00 0.00 63 1015.1
20260503185325 19 58 4.8 6.4 0.00 0.00 0.00 62 1015.1
20260503184825 19 129 3.2 4.8 0.00 0.00 0.00 62 1015.1
20260503184322 19 85 3.2 6.4 0.00 0.00 0.00 63 1015.2
20260503183817 19 67 4.8 6.4 0.00 0.00 0.00 63 1014.9
20260503183315 19 93 3.2 3.2 0.00 0.00 0.00 64 1015.0
20260503182812 19 62 8.0 8.0 0.00 0.00 0.00 62 1015.3
20260503182312 19 108 3.2 6.4 0.00 0.00 0.00 63 1015.2
20260503181808 19 224 0.0 6.4 0.00 0.00 0.00 63 1015.2
20260503181305 19 93 3.2 4.8 0.00 0.00 0.00 64 1015.4
20260503180801 18 121 0.0 8.0 0.00 0.00 0.00 65 1015.3
20260503180300 18 44 0.0 4.8 0.00 0.00 0.00 66 1015.3
20260503175755 18 65 3.2 6.4 0.00 0.00 0.00 65 1015.4
20260503175254 18 89 3.2 3.2 0.00 0.00 0.00 69 1015.5
20260503174754 17 104 4.8 9.7 0.00 0.00 0.00 68 1015.4
20260503174253 18 192 0.0 3.2 0.00 0.00 0.00 68 1015.5
20260503173748 17 84 4.8 8.0 0.00 0.00 0.00 68 1015.4
20260503173244 17 89 3.2 8.0 0.00 0.00 0.00 71 1015.6
20260503172741 16 128 1.6 6.4 0.00 0.00 0.00 75 1015.7
20260503172238 16 67 6.4 8.0 0.00 0.00 0.00 72 1015.6
20260503171734 16 65 4.8 6.4 0.00 0.00 0.00 74 1015.6
20260503171232 16 93 3.2 6.4 0.00 0.00 0.00 75 1015.7
20260503170729 16 111 0.0 6.4 0.00 0.00 0.00 76 1015.7
20260503170226 16 58 6.4 6.4 0.00 0.00 0.00 77 1016.0
20260503160147 13 82 0.0 4.8 0.00 0.00 0.00 84 1016.1
20260503150617 11 68 0.0 1.6 0.00 0.00 0.00 92 1016.3
20260503150114 11 143 0.0 3.2 0.00 0.00 0.00 93 1016.1
20260503131007 10 120 0.0 4.8 0.00 0.00 0.00 92 1015.9
20260503130505 10 63 1.6 3.2 0.00 0.00 0.00 92 1015.8
20260503110355 11 59 1.6 3.2 0.00 0.00 0.00 85 1016.0
20260503090241 12 39 1.6 3.2 0.00 0.00 0.00 80 1015.7
20260503081208 13 51 1.6 3.2 0.00 0.00 0.00 75 1015.8
20260503080703 13 72 0.0 1.6 0.00 0.00 0.00 76 1015.8
20260503080201 13 53 0.0 3.2 0.00 0.00 0.00 75 1015.8
20260503072637 16 47 0.0 3.2 0.00 0.00 0.00 67 1015.6
20260503072134 16 298 0.0 3.2 0.00 0.00 0.00 67 1015.6
20260503071631 16 31 3.2 3.2 0.00 0.00 0.00 66 1015.6
20260503071127 16 13 3.2 3.2 0.00 0.00 0.00 65 1015.6
20260503070625 16 6 0.0 3.2 0.00 0.00 0.00 66 1015.5
20260503070123 16 315 1.6 3.2 0.00 0.00 0.00 65 1015.5
20260503055043 15 46 1.6 3.2 0.00 0.00 0.00 70 1015.3
20260503054539 15 22 3.2 3.2 0.00 0.00 0.00 70 1015.4
20260503054037 15 32 0.0 3.2 0.00 0.00 0.00 70 1015.2
20260503053535 15 29 3.2 3.2 0.00 0.00 0.00 70 1015.3
20260503053032 15 37 3.2 3.2 0.00 0.00 0.00 69 1015.3
20260503052529 14 17 1.6 3.2 0.00 0.00 0.00 70 1015.3
20260503052025 14 11 1.6 1.6 0.00 0.00 0.00 71 1015.4
20260503051520 14 46 0.0 4.8 0.00 0.00 0.00 70 1015.3
20260503051019 14 42 1.6 4.8 0.00 0.00 0.00 72 1015.3
20260503050514 14 29 1.6 3.2 0.00 0.00 0.00 73 1015.6
20260503050012 14 114 1.6 3.2 0.00 0.00 0.00 74 1015.2
20260503045509 14 112 1.6 3.2 0.00 0.00 0.00 74 1015.4
20260503045006 14 13 3.2 4.8 0.00 0.00 0.00 73 1015.3
20260503044502 14 10 0.0 3.2 0.00 0.00 0.00 73 1015.3
20260503044000 14 346 3.2 3.2 0.00 0.00 0.00 75 1015.5
20260503043456 14 33 0.0 3.2 0.00 0.00 0.00 75 1015.5
20260503042952 14 35 3.2 3.2 0.00 0.00 0.00 76 1015.3
20260503042449 14 38 0.0 3.2 0.00 0.00 0.00 76 1015.2
20260503041946 14 44 3.2 3.2 0.00 0.00 0.00 78 1015.2
20260503041443 14 93 0.0 3.2 0.00 0.00 0.00 78 1015.1
20260503040940 15 56 0.0 3.2 0.00 0.00 0.00 78 1015.0
20260503040437 15 124 0.0 1.6 0.00 0.00 0.00 79 1015.1
20260503035935 15 73 1.6 3.2 0.00 0.00 0.00 78 1015.0
20260503035431 15 44 1.6 3.2 0.00 0.00 0.00 78 1014.9
20260503034929 15 45 0.0 1.6 0.00 0.00 0.00 77 1014.8
20260503034426 15 37 0.0 3.2 0.00 0.00 0.00 76 1014.8
20260503033923 15 68 3.2 4.8 0.00 0.00 0.00 76 1014.7
20260503033421 15 85 4.8 6.4 0.00 0.00 0.00 75 1014.5
20260503032919 16 98 3.2 3.2 0.00 0.00 0.00 74 1014.5
20260503032417 16 96 3.2 3.2 0.00 0.00 0.00 74 1014.7
20260503031914 16 87 1.6 1.6 0.00 0.00 0.00 72 1014.8
20260503031412 16 53 1.6 1.6 0.00 0.00 0.00 74 1014.7
20260503030908 16 37 0.0 3.2 0.00 0.00 0.00 73 1014.8
20260503030405 16 60 1.6 1.6 0.00 0.00 0.00 71 1014.6
20260503025901 16 92 3.2 3.2 0.00 0.00 0.00 71 1014.7
20260503025359 17 89 0.0 3.2 0.00 0.00 0.00 69 1014.5
20260503024856 17 74 0.0 1.6 0.00 0.00 0.00 68 1014.5
20260503024353 17 62 0.0 3.2 0.00 0.00 0.00 66 1014.4
20260503023849 17 37 0.0 1.6 0.00 0.00 0.00 66 1014.6
20260503023346 17 103 0.0 3.2 0.00 0.00 0.00 64 1014.6
20260503022844 18 133 3.2 3.2 0.00 0.00 0.00 65 1014.6
20260503022343 18 129 1.6 3.2 0.00 0.00 0.00 64 1014.4
20260503021840 18 89 1.6 3.2 0.00 0.00 0.00 63 1014.6
20260503021337 18 95 3.2 3.2 0.00 0.00 0.00 62 1014.6
20260503020834 18 144 0.0 3.2 0.00 0.00 0.00 61 1014.6
20260503020332 18 135 0.0 3.2 0.00 0.00 0.00 61 1014.7
20260503015828 18 87 3.2 3.2 0.00 0.00 0.00 61 1014.8
20260503015325 19 82 3.2 4.8 0.00 0.00 0.00 61 1014.6
20260503014820 19 40 3.2 4.8 0.00 0.00 0.00 61 1014.6
20260503014319 19 92 3.2 4.8 0.00 0.00 0.00 61 1014.9
20260503013815 20 79 3.2 4.8 0.00 0.00 0.00 60 1014.9
20260503013313 20 66 3.2 3.2 0.00 0.00 0.00 60 1014.9
20260503012810 20 96 1.6 3.2 0.00 0.00 0.00 59 1014.7
20260503012307 20 76 3.2 4.8 0.00 0.00 0.00 57 1015.1
20260503011804 21 76 3.2 4.8 0.00 0.00 0.00 54 1015.0
20260503011301 22 116 3.2 4.8 0.00 0.00 0.00 52 1015.2
20260503010757 22 121 1.6 4.8 0.00 0.00 0.00 53 1015.1
20260503010255 22 129 3.2 3.2 0.00 0.00 0.00 52 1015.2
20260503005751 21 79 3.2 3.2 0.00 0.00 0.00 55 1015.1
20260503005249 22 92 1.6 4.8 0.00 0.00 0.00 55 1015.2
20260503004744 21 64 0.0 6.4 0.00 0.00 0.00 58 1015.2
20260503004243 21 97 3.2 4.8 0.00 0.00 0.00 57 1015.1
20260503003740 21 105 1.6 4.8 0.00 0.00 0.00 56 1015.3
20260503003237 22 95 3.2 4.8 0.00 0.00 0.00 53 1015.3
20260503002733 22 64 3.2 4.8 0.00 0.00 0.00 54 1015.3
20260503002231 22 42 4.8 6.4 0.00 0.00 0.00 54 1015.2
20260503001726 22 64 4.8 6.4 0.00 0.00 0.00 52 1015.5
20260503001223 22 108 1.6 4.8 0.00 0.00 0.00 54 1015.5
20260503000721 21 44 3.2 6.4 0.00 0.00 0.00 54 1015.4
20260503000218 22 91 3.2 6.4 0.00 0.00 0.00 56 1015.4
20260502235715 21 87 3.2 8.0 0.00 0.00 0.00 58 1015.7
20260502235213 22 81 3.2 8.0 0.00 0.00 0.00 55 1015.5
20260502234709 21 85 3.2 6.4 0.00 0.00 0.00 57 1015.6
20260502234206 21 129 1.6 6.4 0.00 0.00 0.00 57 1015.7
20260502233702 21 112 4.8 4.8 0.00 0.00 0.00 57 1015.8
20260502233159 21 205 0.0 6.4 0.00 0.00 0.00 57 1015.8
20260502232654 21 79 4.8 6.4 0.00 0.00 0.00 58 1015.8
20260502232152 21 68 4.8 6.4 0.00 0.00 0.00 58 1016.0
20260502231649 21 93 3.2 8.0 0.00 0.00 0.00 56 1016.0
20260502231146 21 103 3.2 6.4 0.00 0.00 0.00 55 1016.0
20260502230645 21 73 0.0 9.7 0.00 0.00 0.00 57 1016.1
20260502230144 21 91 3.2 9.7 0.00 0.00 0.00 56 1016.1
20260502225638 21 96 3.2 6.4 0.00 0.00 0.00 58 1016.3
20260502225136 21 81 3.2 8.0 0.00 0.00 0.00 57 1016.3
20260502224632 21 129 3.2 12.9 0.00 0.00 0.00 57 1016.4
20260502224129 20 103 3.2 6.4 0.00 0.00 0.00 58 1016.4
20260502223626 20 82 6.4 11.3 0.00 0.00 0.00 57 1016.4
20260502223125 21 68 4.8 8.0 0.00 0.00 0.00 56 1016.5
20260502222622 21 88 3.2 9.7 0.00 0.00 0.00 55 1016.5
20260502222118 21 79 0.0 6.4 0.00 0.00 0.00 54 1016.7
20260502221614 21 107 3.2 6.4 0.00 0.00 0.00 55 1016.9
20260502221111 21 79 3.2 8.0 0.00 0.00 0.00 55 1016.8
20260502220608 21 132 3.2 8.0 0.00 0.00 0.00 54 1016.9
20260502220104 21 69 3.2 4.8 0.00 0.00 0.00 53 1016.9
20260502215601 21 98 3.2 3.2 0.00 0.00 0.00 54 1017.0
20260502215058 20 77 6.4 6.4 0.00 0.00 0.00 54 1017.2
20260502214555 20 108 3.2 9.7 0.00 0.00 0.00 55 1017.1
20260502214052 20 109 4.8 8.0 0.00 0.00 0.00 56 1017.0
20260502213549 20 92 3.2 9.7 0.00 0.00 0.00 54 1017.2
20260502213047 20 71 6.4 9.7 0.00 0.00 0.00 55 1017.3
20260502212546 20 61 8.0 9.7 0.00 0.00 0.00 54 1017.4
20260502212043 20 73 4.8 9.7 0.00 0.00 0.00 54 1017.5
20260502211538 20 77 3.2 6.4 0.00 0.00 0.00 55 1017.5
20260502211036 20 93 3.2 6.4 0.00 0.00 0.00 56 1017.7
20260502210532 20 107 6.4 9.7 0.00 0.00 0.00 58 1017.7
20260502210030 20 112 6.4 8.0 0.00 0.00 0.00 59 1017.6
20260502205526 20 85 1.6 8.0 0.00 0.00 0.00 59 1017.7
20260502205023 20 114 6.4 6.4 0.00 0.00 0.00 61 1017.8
20260502204520 19 120 4.8 6.4 0.00 0.00 0.00 60 1017.9
20260502204018 19 122 6.4 9.7 0.00 0.00 0.00 61 1017.7
20260502203515 20 71 8.0 11.3 0.00 0.00 0.00 58 1017.8
20260502203012 20 71 8.0 8.0 0.00 0.00 0.00 61 1017.7
20260502202508 19 97 6.4 8.0 0.00 0.00 0.00 62 1018.0
20260502202006 19 121 6.4 8.0 0.00 0.00 0.00 66 1018.1
20260502201502 18 109 6.4 8.0 0.00 0.00 0.00 67 1017.8
20260502200958 18 105 6.4 9.7 0.00 0.00 0.00 66 1018.0
20260502200454 18 59 8.0 11.3 0.00 0.00 0.00 67 1017.9
20260502195952 18 154 3.2 8.0 0.00 0.00 0.00 68 1018.2
20260502195450 18 110 6.4 9.7 0.00 0.00 0.00 71 1018.2